Showing default

GALAXY 11, 26038

Orbit data source: Space-Track

GALAXY 11, 26038 is a payload satellite owned by Panamsat (US) in GEO that was launched on Wed, 22 Dec 1999 UTC via an ARIANE 44L launch vehicle from the French Guiana (FRGUI). Payload-class satellites include a variety of spacecraft equipped with specific instruments for various scientific and technological missions. These include communications satellites like Starlink; space stations such as the ISS; scientific satellites like the Hubble; Earth observation satellites from companies like Planet Labs, Umbra, and HawkEye 360; GPS; miniature CubeSats for education and research; and military/defense satellites.

Loading next visibility...
Identifier
26038, 1999-071A
Orbit
GEO
Country
Flag of USUS
Related business
Manufacturer
Hughes
Mission
Non-operational Commercial Communications
Bus & Motor
HS-702, R-4D-11-300
Mass
4,484 kg wet, ~4,400 kg dry
Launch date (UTC)
1999-12-22 (26 years ago)
Launch vehicle
ARIANE 44L
Launch site
French Guiana (FRGUI)
Object type
Payload
Rocket body
Debris
Shape & HBR
Box + 2 Pan, 17.0 m
Radar Cross Section
53.041 m², Large (>1 m²)

Expand to show TLE details & history
Last TLE update: 14 hours ago

TLE from 14 hours ago
0 GALAXY 11
1 26038U 99071A   25349.81436645  .00000050  00000-0  00000-0 0  9990
2 26038   6.2799  72.8383 0007366 293.1441 226.5409  0.99023296 95193
Epoch: 2025-12-15T19:32Z
TLE epoch observation values (Epoch: 2025-12-15T19:32:41.261Z)
Latitude
2.1644°
Longitude
-145.30643°
Altitude
36,161.049 km
Speed
3.06 km/s
True Right ascension
15h 30m 17s
True Declination
2° 09' 44"
Sunlit
Object was in daylight at epoch
Visualization orbit readout
Latitude
Unknown
Longitude
Unknown
Altitude
Unknown
Speed
Unknown
Apparent Right ascension
Unknown
Apparent Declination
Unknown
Sunlit
N/A
Visualization observer readout
Local Sidereal Time
08:42:07
Azimuth
Unknown
Elevation
Unknown
Doppler factor
Unknown
Orbital elements
Apogee altitude
36,172.627 km
Perigee altitude
36,109.987 km
Semi-major axis
42,519.444 km
Eccentricity
0.00074
Inclination
6.2799°
RAAN
72.8383°
Arg. of periapsis
293.1441°
True anomaly
226.47967°
Mean anomaly
226.5409°
Eccentric anomaly
226.51028°
Mean motion
0.24755 °/min
Orbital period
1,454.26 mins
BSTAR
0
Loading maneuver chart data...
Computing Atmospheric mass density...
Loading historical data...
Loading historical data...
Loading historical data...
Loading historical data...
Loading historical data...
Loading historical data...
Loading historical data...
Other satellites on launch #71 in the year 1999 (1999-12-22 UTC)

Documentation

Showing up to 5 results
|